TimeAKST,TemperatureF,Dew PointF,Humidity,Sea Level PressureIn,VisibilityMPH,Wind Direction,Wind SpeedMPH,Gust SpeedMPH,PrecipitationIn,Events,Conditions,WindDirDegrees,DateUTC
12:53 AM,30.9,30.0,96,29.74,10.0,Calm,Calm,-,N/A,,Clear,0,2013-02-12 09:53:00
1:42 AM,32.0,30.2,93,29.74,7.0,Calm,Calm,-,N/A,,Scattered Clouds,0,2013-02-12 10:42:00
1:53 AM,32.0,30.9,96,29.74,10.0,Calm,Calm,-,N/A,,Scattered Clouds,0,2013-02-12 10:53:00
2:07 AM,32.0,30.2,93,29.74,10.0,Calm,Calm,-,N/A,,Mostly Cloudy,0,2013-02-12 11:07:00
2:14 AM,32.0,30.2,93,29.73,10.0,ESE,4.6,-,N/A,,Partly Cloudy,110,2013-02-12 11:14:00
3:53 AM,30.9,30.0,96,29.72,10.0,East,3.5,-,N/A,,Clear,100,2013-02-12 12:53:00
4:53 AM,30.9,30.0,96,29.73,10.0,Calm,Calm,-,N/A,,Clear,0,2013-02-12 13:53:00
5:53 AM,32.0,30.9,96,29.74,10.0,NNE,4.6,-,N/A,,Clear,30,2013-02-12 14:53:00
6:53 AM,35.1,30.9,85,29.74,10.0,NW,12.7,-,N/A,Fog,Patches of Fog,320,2013-02-12 15:53:00
7:53 AM,36.0,27.0,70,29.75,10.0,North,17.3,21.9,N/A,,Mostly Cloudy,350,2013-02-12 16:53:00
8:53 AM,36.0,27.0,70,29.77,10.0,North,11.5,17.3,N/A,,Mostly Cloudy,350,2013-02-12 17:53:00
9:53 AM,37.0,27.0,67,29.80,10.0,North,11.5,-,N/A,,Overcast,360,2013-02-12 18:53:00
10:53 AM,37.0,27.0,67,29.82,10.0,North,4.6,17.3,N/A,,Mostly Cloudy,360,2013-02-12 19:53:00
11:53 AM,37.9,28.0,68,29.86,10.0,NNW,10.4,-,N/A,,Scattered Clouds,330,2013-02-12 20:53:00
12:53 PM,37.9,28.0,68,29.89,10.0,NNW,6.9,-,N/A,,Overcast,330,2013-02-12 21:53:00
1:53 PM,39.0,28.0,65,29.92,10.0,NW,16.1,-,N/A,,Mostly Cloudy,310,2013-02-12 22:53:00
2:53 PM,39.0,28.0,65,29.96,10.0,West,12.7,-,N/A,,Overcast,280,2013-02-12 23:53:00
3:53 PM,39.0,27.0,62,29.99,10.0,NW,12.7,-,N/A,,Overcast,320,2013-02-13 00:53:00
4:53 PM,39.0,27.0,62,30.00,10.0,North,3.5,-,N/A,,Overcast,360,2013-02-13 01:53:00
5:53 PM,37.9,28.0,68,30.03,10.0,Calm,Calm,-,N/A,,Overcast,0,2013-02-13 02:53:00
6:53 PM,37.0,28.0,70,30.06,10.0,Calm,Calm,-,N/A,,Overcast,0,2013-02-13 03:53:00
7:53 PM,36.0,30.0,79,30.07,10.0,ESE,3.5,-,N/A,,Overcast,120,2013-02-13 04:53:00
8:53 PM,36.0,30.0,79,30.09,10.0,East,3.5,-,N/A,,Overcast,90,2013-02-13 05:53:00
9:53 PM,36.0,30.9,82,30.11,10.0,East,5.8,-,N/A,,Overcast,100,2013-02-13 06:53:00
10:42 PM,35.6,32.0,87,30.13,3.0,South,5.8,-,0.02,Snow,Light Snow,170,2013-02-13 07:42:00
10:53 PM,35.1,33.1,92,30.13,5.0,SE,6.9,-,0.02,Rain,Light Rain,130,2013-02-13 07:53:00
11:18 PM,35.6,33.8,93,30.14,10.0,SSE,6.9,-,0.00,,Overcast,160,2013-02-13 08:18:00
11:53 PM,35.1,33.1,92,30.14,10.0,East,5.8,-,0.00,Rain,Light Rain,90,2013-02-13 08:53:00